N6EQ Weather Reports


time (UTC)temp
C
wind
direction
speed
KPH
gust
KPH
rain 1hr
cm
rain 24hr
cm
rain mn
cm
humidity
%
barometer
mb
20260503231528 33 207 24.1 41.8 0.00 0.00 0.00 12 943.7
20260503230037 33 144 29.0 40.2 0.00 0.00 0.00 12 943.7
20260503224524 33 173 24.1 38.6 0.00 0.00 0.00 11 943.9
20260503223021 33 22.5 48.3 0.00 0.00 0.00 11 944.0
20260503221523 33 205 17.7 33.8 0.00 0.00 0.00 12 944.2
20260503220018 33 202 17.7 43.5 0.00 0.00 0.00 12 944.4
20260503214534 33 184 25.7 53.1 0.00 0.00 0.00 12 944.7
20260503213016 34 167 22.5 40.2 0.00 0.00 0.00 12 944.8
20260503211514 33 195 24.1 41.8 0.00 0.00 0.00 13 945.0
20260503210013 34 238 24.1 48.3 0.00 0.00 0.00 14 945.1
20260503204512 33 191 29.0 49.9 0.00 0.00 0.00 15 945.2
20260503203014 33 191 27.4 45.1 0.00 0.00 0.00 16 945.3
20260503201510 33 203 24.1 49.9 0.00 0.00 0.00 16 945.5
20260503200008 33 22.5 32.2 0.00 0.00 0.00 17 945.9
20260503194508 32 20.9 35.4 0.00 0.00 0.00 17 946.3
20260503193002 33 24.1 37.0 0.00 0.00 0.00 17 946.5
20260503191618 32 216 16.1 38.6 0.00 0.00 0.00 16 946.9
20260503190055 32 209 12.9 38.6 0.00 0.00 0.00 16 947.2
20260503184553 31 218 16.1 29.0 0.00 0.00 0.00 15 947.4
20260503183050 31 251 20.9 27.4 0.00 0.00 0.00 15 947.7
20260503181551 30 231 11.3 22.5 0.00 0.00 0.00 15 948.0
20260503180055 30 153 3.2 16.1 0.00 0.00 0.00 14 948.3
20260503174551 29 246 6.4 14.5 0.00 0.00 0.00 13 948.4
20260503173043 29 272 4.8 12.9 0.00 0.00 0.00 12 948.4
20260503171542 30 212 1.6 9.7 0.00 0.00 0.00 12 948.5
20260503081551 25 340 0.0 3.2 0.00 0.00 0.00 13 948.5
20260503071544 26 94 4.8 16.1 0.00 0.00 0.00 12 948.8
20260503054555 26 71 9.7 14.5 0.00 0.00 0.00 12 948.8
20260503053034 26 81 11.3 16.1 0.00 0.00 0.00 12 948.8
20260503051534 26 73 11.3 14.5 0.00 0.00 0.00 12 948.8
20260503050035 26 94 9.7 12.9 0.00 0.00 0.00 12 948.8
20260503044539 26 83 8.0 12.9 0.00 0.00 0.00 12 948.8
20260503043041 26 83 8.0 11.3 0.00 0.00 0.00 12 948.8
20260503041531 26 82 8.0 11.3 0.00 0.00 0.00 11 948.6
20260503040032 27 85 9.7 11.3 0.00 0.00 0.00 11 948.4
20260503034529 27 89 8.0 12.9 0.00 0.00 0.00 11 948.3
20260503033028 27 6.4 9.7 0.00 0.00 0.00 11 948.1
20260503031528 28 1.6 6.4 0.00 0.00 0.00 10 948.1
20260503030034 29 3.2 6.4 0.00 0.00 0.00 10 948.0
20260503024527 30 213 0.0 0.0 0.00 0.00 0.00 10 947.9
20260503023026 30 212 0.0 0.0 0.00 0.00 0.00 10 947.6
20260503021525 31 212 0.0 8.0 0.00 0.00 0.00 10 947.7
20260503020025 31 286 1.6 4.8 0.00 0.00 0.00 9 947.8
20260503014524 31 239 3.2 11.3 0.00 0.00 0.00 9 947.8
20260503013035 32 233 4.8 14.5 0.00 0.00 0.00 8 947.9
20260503011522 32 203 3.2 12.9 0.00 0.00 0.00 9 947.9
20260503010023 32 200 14.5 24.1 0.00 0.00 0.00 9 947.9
20260503004521 32 6.4 14.5 0.00 0.00 0.00 9 948.0
20260503003018 32 219 6.4 17.7 0.00 0.00 0.00 9 948.0
20260503001518 32 244 9.7 19.3 0.00 0.00 0.00 9 948.1
20260503000017 32 215 11.3 17.7 0.00 0.00 0.00 9 948.2
20260502234515 32 238 9.7 22.5 0.00 0.00 0.00 9 948.2
20260502233028 32 236 8.0 20.9 0.00 0.00 0.00 8 948.2